sat.trackr.live / text

‹ back to catalog

STARLINK-36838

NORAD 67855 · 2026-034F

PAYLOAD ACTIVE UNKNOWN

§ Identity

Operator
Country
US
Launch date
2026-02-20
Launch site
AFETR
Launch vehicle
Mass (kg)
RCS (m²)

Purposes: comms

External: N2YO · Heavens-Above · Gunter

§ Orbital elements

Epoch: 2026-09-19T19:10:02.485632Z

Period
94.01 min
Inclination
53.1604°
Eccentricity
0.0001142
Mean motion
15.31722239 rev/d
Perigee alt
469.9 km
Apogee alt
471.5 km
Semi-major
6,848.8 km
B*
5.4062e-4
RAAN
21.2772°
Arg perigee
78.9856°
Mean anomaly
281.1274°
Rev number
3,377

§ Raw data

STARLINK-368381 67855U 26034F   26262.79863988  .00016460  00000+0  54062-3 0  99982 67855  53.1604  21.2772 0001142  78.9856 281.1274 15.31722239 33774

JSON: /api/v1/satellites/67855 · /tle

For live sub-satellite position, see the globe view (requires WebGL).

§ Visibility from observer

Set your observer location to see the next 7 days of passes ≥ 10°. The values pass through the URL so the page stays shareable.

No JS? Fill the form by hand. The geolocation button needs JavaScript.